sat.trackr.live / text

‹ back to catalog

STARLINK-34023

NORAD 63875 · 2025-094M

PAYLOAD ACTIVE UNKNOWN

§ Identity

Operator
Country
US
Launch date
2025-05-10
Launch site
AFWTR
Launch vehicle
Mass (kg)
RCS (m²)

Purposes: comms

External: N2YO · Heavens-Above · Gunter

§ Orbital elements

Epoch: 2026-05-25T02:52:51.981312Z

Period
96.11 min
Inclination
70.0017°
Eccentricity
0.0002523
Mean motion
14.98337355 rev/d
Perigee alt
570.3 km
Apogee alt
573.8 km
Semi-major
6,950.2 km
B*
2.9955e-4
RAAN
41.6744°
Arg perigee
268.6787°
Mean anomaly
91.4083°
Rev number
5,865

§ Raw data

STARLINK-340231 63875U 25094M   26145.12004608  .00003484  00000+0  29955-3 0  99992 63875  70.0017  41.6744 0002523 268.6787  91.4083 14.98337355 58655

JSON: /api/v1/satellites/63875 · /tle

For live sub-satellite position, see the globe view (requires WebGL).

§ Visibility from observer

Set your observer location to see the next 7 days of passes ≥ 10°. The values pass through the URL so the page stays shareable.

No JS? Fill the form by hand. The geolocation button needs JavaScript.